[[{"header":{"parameterUnit":"m.s-1","parameterCategory":1,"la1":30.2991,"la2":30.254,"lo1":-89.0895,"lo2":-89.0444,"dy":0.0017,"dx":0.0017,"nx":28,"ny":28,"refTime":"2024-12-22T09:00:00:Z","depth":0,"parameterNumber":2,"parameterNumberName":"U-component_of_WINDS"},"data":[0,0,0,0,0,0,0,0,0,0,0,0,0,0,0,0,0,0,0,0,0,0,0,0,0,0,0,0,0,0,0,0,0,0,0,0,0,0,0,0,0,0,0,0,0,0,0,0,0,0,0,0,0,0,0,0,0,0,-4.2525,-4.2526,0,-4.2591,-4.2592,-4.2593,-4.2463,-4.2458,-4.2454,-4.245,-4.252,-4.2526,-4.2531,0,0,0,0,0,0,0,0,0,0,0,0,0,-4.2289,-4.2294,-4.2525,-4.2526,-4.2527,-4.2591,-4.2592,-4.2593,-4.2463,-4.2458,-4.2453,-4.2448,-4.2518,-4.2525,-4.2532,0,0,0,0,0,0,0,0,0,0,0,0,0,-4.2377,-4.2296,-4.2525,-4.247,-4.2466,-4.2591,-4.2592,-4.2593,-4.2464,-4.2458,-4.2452,-4.2446,-4.2516,-4.2524,-4.2533,-4.2715,0,0,-4.256,-4.2563,0,0,0,0,0,0,0,0,-4.2372,-4.2386,-4.2477,-4.2474,-4.2469,-4.2512,-4.2534,-4.2634,-4.2466,-4.2465,-4.245,-4.2442,-4.2523,-4.253,-4.2557,-4.2719,-4.2722,-4.256,-4.2566,-4.2569,-4.2572,0,0,0,0,0,0,0,-4.2366,-4.2382,-4.2551,-4.2479,-4.2474,-4.2442,-4.2448,-4.2552,-4.2529,-4.2465,-4.2455,-4.2465,-4.2519,-4.2549,-4.2558,-4.2723,-4.256,-4.2568,-4.2573,-4.2577,-4.3036,-4.3043,0,0,0,0,0,0,-4.2367,-4.2378,-4.2549,-4.2553,-4.2404,-4.2452,-4.2458,-4.2505,-4.2528,-4.2525,-4.247,-4.2458,-4.2537,-4.2547,-4.256,-4.2774,-4.2569,-4.2578,-4.2583,-4.3029,-4.3038,-4.3045,0,0,0,0,0,0,-4.2362,-4.2383,-4.2547,-4.2463,-4.2482,-4.2463,-4.2517,-4.251,-4.2539,-4.2532,-4.2527,-4.2505,-4.2532,-4.2547,-4.2677,-4.2774,-4.2582,-4.259,-4.3021,-4.3032,-4.3042,-4.3205,0,0,0,0,0,0,-4.2356,-4.2383,-4.2451,-4.2466,-4.2487,-4.2663,-4.2523,-4.2515,-4.2554,-4.2539,-4.2563,-4.256,-4.2528,-4.2665,-4.2686,-4.2783,-4.2596,-4.3012,-4.3026,-4.3038,-4.319,-4.3219,-4.3244,0,0,0,0,0,-4.2348,-4.2496,-4.2456,-4.2477,-4.2572,-4.2669,-4.2681,-4.264,-4.2562,-4.2632,-4.2627,-4.256,-4.2761,-4.2679,-4.2702,-4.2803,-4.3006,-4.3022,-4.3037,-4.3178,-4.3214,-4.3243,0,0,0,0,0,0,-4.2494,-4.2496,-4.2452,-4.2608,-4.2639,-4.2647,-4.2733,-4.2679,-4.2733,-4.2718,-4.2665,-4.2672,-4.2812,-4.282,-4.273,-4.298,-4.287,-4.2891,-4.297,-4.3003,-4.3029,-4.3024,-4.2604,0,0,0,0,0,-4.2545,-4.2622,-4.262,-4.2758,-4.2776,-4.2752,-4.2793,-4.2759,-4.2789,-4.2802,-4.2806,-4.2839,-4.2909,-4.2957,-4.3021,-4.3191,-4.3194,-4.3272,-4.3299,-4.3321,-4.3339,-4.3429,-4.3463,-4.3097,-4.3097,-4.3096,0,0,-4.2649,-4.266,-4.2713,-4.2788,-4.2808,-4.289,-4.2764,-4.2857,-4.2917,-4.2816,-4.2938,-4.2943,-4.2976,-4.3127,-4.3194,-4.3138,-4.3441,-4.3341,-4.3358,-4.3365,-4.3449,-4.3484,-4.3514,-4.3107,-4.3105,-4.3104,0,0,-4.2882,-4.2899,-4.3015,-4.3037,-4.3068,-4.3051,-4.308,-4.3095,-4.3094,-4.3216,-4.3142,-4.3213,-4.3336,-4.3362,-4.3391,-4.3633,-4.3573,-4.3656,-4.3796,-4.3884,-4.3913,-4.3938,-4.4024,-4.4055,-4.3674,-4.3675,-4.3675,0,-4.3009,-4.3129,-4.3081,-4.3179,-4.3214,-4.3125,-4.3243,-4.3267,-4.3319,-4.3345,-4.3282,-4.3433,-4.3449,-4.3604,-4.3663,-4.369,-4.372,-4.3653,-4.3912,-4.3937,-4.396,-4.4041,-4.4074,-4.3685,-4.3684,-4.3683,-4.3682,0,-4.3282,-4.3367,-4.3457,-4.3508,-4.3553,-4.366,-4.3629,-4.3681,-4.3643,-4.3633,-4.3758,-4.3774,-4.384,-4.3874,-4.3839,-4.4025,-4.3989,-4.3921,-4.3808,-4.4006,-4.4081,-4.4112,-4.3699,-4.3695,-4.3692,-4.369,0,0,-4.3609,-4.3631,-4.3665,-4.3687,-4.3715,-4.3779,-4.3882,-4.3945,-4.399,-4.4029,-4.4114,-4.4219,-4.4155,-4.4189,-4.4155,-4.4233,-4.4423,-4.4154,-4.4154,-4.4203,-4.4628,-4.4679,-4.4716,-4.4384,-4.4389,-4.4394,-4.4625,0,-4.3839,-4.4015,-4.3975,-4.4149,-4.4226,-4.4143,-4.4233,-4.426,-4.4253,-4.4318,-4.4311,-4.4386,-4.4296,-4.4316,-4.4389,-4.4385,-4.4508,-4.4367,-4.4462,-4.4466,-4.4456,-4.4755,-4.481,-4.5027,-4.4654,-4.4659,-4.4663,0,-4.4131,-4.4179,-4.4361,-4.4375,-4.4406,-4.4487,-4.4541,-4.4604,-4.4633,-4.4623,-4.466,-4.4612,-4.4714,-4.4601,-4.4741,-4.4647,-4.4684,-4.4687,-4.4695,-4.4702,-4.4576,-4.477,-4.5096,-4.5128,-4.4709,-4.4705,-4.4702,0,-4.435,-4.4461,-4.4583,-4.4604,-4.4624,-4.4683,-4.4694,-4.4717,-4.4757,-4.4805,-4.483,-4.489,-4.4923,-4.4971,-4.4939,-4.486,-4.5085,-4.497,-4.5079,-4.508,-4.513,-4.5127,-4.5466,-4.5155,-4.5155,-4.5154,-4.5153,0,-4.461,-4.4725,-4.4681,-4.4757,-4.4882,-4.4835,-4.4961,-4.4962,-4.4983,-4.5058,-4.499,-4.5062,-4.5016,-4.5084,-4.5061,-4.518,-4.5196,-4.519,-4.5182,-4.5196,-4.5197,-4.5219,-4.5203,-4.5162,-4.5161,-4.5159,-4.5157,0,-4.4876,-4.4852,-4.498,-4.4988,-4.4993,-4.5085,-4.5092,-4.5162,-4.515,-4.5245,-4.5265,-4.5247,-4.5323,-4.5296,-4.5379,-4.5363,-4.5515,-4.5488,-4.5505,-4.5498,-4.5608,-4.5598,-4.5972,-4.6019,-4.5679,-4.5682,-4.5685,0,-4.5044,-4.5129,-4.5147,-4.5191,-4.5207,-4.528,-4.532,-4.5278,-4.5322,-4.5362,-4.5427,-4.5497,-4.5551,-4.5677,-4.5672,-4.5734,-4.5708,-4.5835,-4.5717,-4.5728,-4.5709,-4.5704,-4.5712,-4.5858,-4.5862,-4.5866,-4.5868,0,-4.5344,-4.5327,-4.5387,-4.5444,-4.5493,-4.5536,-4.5573,-4.5613,-4.5573,-4.5627,-4.5703,-4.5745,-4.5828,-4.5899,-4.5955,-4.5967,-4.5912,-4.5905,-4.5934,-4.5948,-4.5954,-4.5951,-4.5568,-4.5897,-4.5894,-4.5892,-4.589,-4.5889,-4.5565,-4.5636,-4.5659,-4.5729,-4.5751,-4.5787,-4.5853,-4.5849,-4.5912,-4.5975,-4.5947,-4.6036,-4.6062,-4.6131,-4.6151,-4.622,-4.6171,-4.6213,-4.6223,-4.6234,-4.6248,-4.5944,-4.623,-4.623,-4.6229,-4.6228,-4.6227,0,-4.586,-4.587,-4.5935,-4.5987,-4.6042,-4.5984,-4.6021,-4.6071,-4.6149,-4.6178,-4.6232,-4.632,-4.6388,-4.6388,-4.6451,-4.6506,-4.6483,-4.6524,-4.652,-4.6523,-4.6288,-4.6257,-4.6543,-4.6543,-4.6543,-4.6543,-4.6542,-4.6542,-4.602,-4.6138,-4.6124,-4.6253,-4.6263,-4.6348,-4.6374,-4.6407,-4.6429,-4.653,-4.6586,-4.6585,-4.6602,-4.6666,-4.6726,-4.6724,-4.675,-4.6802,-4.6791,-4.6571,-4.654,-4.651,-4.648,-4.6808,-4.6809,-4.702,-4.7022,-4.7023]},{"header":{"parameterUnit":"m.s-1","parameterCategory":1,"la1":30.2991,"la2":30.254,"lo1":-89.0895,"lo2":-89.0444,"dy":0.0017,"dx":0.0017,"nx":28,"ny":28,"refTime":"2024-12-22T09:00:00:Z","depth":0,"parameterNumber":3,"parameterNumberName":"V-component_of_WINDS"},"data":[0,0,0,0,0,0,0,0,0,0,0,0,0,0,0,0,0,0,0,0,0,0,0,0,0,0,0,0,0,0,0,0,0,0,0,0,0,0,0,0,0,0,0,0,0,0,0,0,0,0,0,0,0,0,0,0,0,0,-0.9463,-0.9463,0,-0.9439,-0.9439,-0.9439,-0.942,-0.942,-0.942,-0.942,-0.9396,-0.9395,-0.9395,0,0,0,0,0,0,0,0,0,0,0,0,0,-0.9492,-0.9492,-0.9463,-0.9463,-0.9463,-0.9439,-0.9439,-0.9439,-0.942,-0.942,-0.942,-0.942,-0.9396,-0.9395,-0.9395,0,0,0,0,0,0,0,0,0,0,0,0,0,-0.9475,-0.9492,-0.9463,-0.9451,-0.9449,-0.9439,-0.9439,-0.9438,-0.942,-0.942,-0.942,-0.942,-0.9396,-0.9395,-0.9395,-0.9395,0,0,-0.9392,-0.9392,0,0,0,0,0,0,0,0,-0.9476,-0.9474,-0.9453,-0.9452,-0.945,-0.9432,-0.944,-0.9424,-0.942,-0.9431,-0.942,-0.942,-0.9408,-0.9406,-0.9403,-0.9394,-0.9393,-0.9392,-0.9392,-0.9392,-0.9391,0,0,0,0,0,0,0,-0.9477,-0.9475,-0.9454,-0.9453,-0.9451,-0.9446,-0.9443,-0.9437,-0.9422,-0.943,-0.9429,-0.9426,-0.9407,-0.9403,-0.9402,-0.9393,-0.9392,-0.9392,-0.9391,-0.9391,-0.9382,-0.9382,0,0,0,0,0,0,-0.9481,-0.9476,-0.9454,-0.9453,-0.9463,-0.9446,-0.9443,-0.9438,-0.9422,-0.9419,-0.9427,-0.9426,-0.9405,-0.9403,-0.9401,-0.9399,-0.9392,-0.9391,-0.9391,-0.9381,-0.9382,-0.9382,0,0,0,0,0,0,-0.9481,-0.9479,-0.9455,-0.9464,-0.9461,-0.9445,-0.9441,-0.9438,-0.9434,-0.9419,-0.9416,-0.9425,-0.9404,-0.9402,-0.9396,-0.9398,-0.9391,-0.939,-0.9381,-0.9381,-0.9382,-0.9397,0,0,0,0,0,0,-0.9482,-0.9479,-0.948,-0.9464,-0.946,-0.9452,-0.9441,-0.9438,-0.9433,-0.9431,-0.9417,-0.9414,-0.9404,-0.9397,-0.9396,-0.9397,-0.9389,-0.9381,-0.9381,-0.9382,-0.9396,-0.9398,-0.9399,0,0,0,0,0,-0.9483,-0.9485,-0.948,-0.9477,-0.9461,-0.9452,-0.945,-0.9438,-0.9433,-0.9433,-0.9423,-0.9415,-0.9398,-0.9397,-0.9395,-0.9396,-0.9381,-0.9381,-0.9382,-0.9396,-0.9398,-0.9399,0,0,0,0,0,0,-0.9502,-0.9483,-0.9477,-0.9474,-0.9465,-0.9449,-0.9449,-0.944,-0.9432,-0.9431,-0.9417,-0.9414,-0.9409,-0.9402,-0.9401,-0.9395,-0.9388,-0.9388,-0.94,-0.9402,-0.9403,-0.9405,-0.9389,0,0,0,0,0,-0.9506,-0.95,-0.9484,-0.9483,-0.9479,-0.9464,-0.946,-0.9452,-0.9441,-0.9437,-0.9427,-0.9417,-0.941,-0.9405,-0.9398,-0.9395,-0.9391,-0.9395,-0.9396,-0.9397,-0.9398,-0.9394,-0.9395,-0.9383,-0.9383,-0.9383,0,0,-0.9514,-0.9503,-0.95,-0.9487,-0.9478,-0.9473,-0.9461,-0.9456,-0.9451,-0.9437,-0.943,-0.9422,-0.941,-0.9406,-0.9403,-0.94,-0.94,-0.9398,-0.9399,-0.9398,-0.9395,-0.9396,-0.9397,-0.9383,-0.9383,-0.9383,0,0,-0.9525,-0.9517,-0.9514,-0.9506,-0.9493,-0.9483,-0.9482,-0.9467,-0.9461,-0.9454,-0.9443,-0.9437,-0.9425,-0.9416,-0.941,-0.9416,-0.9408,-0.9414,-0.9421,-0.9418,-0.9419,-0.942,-0.9421,-0.9422,-0.9414,-0.9414,-0.9414,0,-0.9537,-0.9528,-0.9514,-0.9509,-0.9503,-0.9488,-0.9485,-0.9478,-0.9463,-0.9459,-0.9455,-0.9438,-0.9429,-0.9422,-0.9423,-0.9419,-0.9417,-0.9416,-0.942,-0.9421,-0.9421,-0.9422,-0.9423,-0.9415,-0.9415,-0.9415,-0.9415,0,-0.9542,-0.9536,-0.9535,-0.9521,-0.9515,-0.9511,-0.9496,-0.9491,-0.9483,-0.9473,-0.9465,-0.9454,-0.9443,-0.944,-0.9433,-0.9431,-0.9429,-0.9423,-0.9416,-0.9424,-0.9424,-0.9425,-0.9416,-0.9416,-0.9415,-0.9415,0,0,-0.9566,-0.9543,-0.9543,-0.9535,-0.9519,-0.9514,-0.9509,-0.9497,-0.9493,-0.9483,-0.9478,-0.9467,-0.946,-0.9453,-0.9444,-0.9441,-0.9445,-0.9435,-0.9434,-0.9437,-0.9442,-0.9447,-0.9448,-0.9439,-0.9439,-0.9439,-0.9443,0,-0.9575,-0.9565,-0.9552,-0.9546,-0.9539,-0.9524,-0.9519,-0.9508,-0.9498,-0.9491,-0.948,-0.9472,-0.9465,-0.946,-0.9457,-0.9445,-0.9446,-0.9445,-0.9434,-0.9434,-0.9437,-0.9448,-0.9454,-0.9458,-0.9443,-0.9443,-0.9443,0,-0.9584,-0.9574,-0.9567,-0.955,-0.9547,-0.9543,-0.953,-0.9523,-0.951,-0.9503,-0.9495,-0.9484,-0.9477,-0.947,-0.946,-0.9459,-0.9454,-0.9447,-0.9447,-0.9446,-0.9439,-0.9447,-0.9459,-0.946,-0.9444,-0.9444,-0.9444,0,-0.9602,-0.9586,-0.958,-0.9574,-0.9554,-0.9551,-0.9542,-0.9529,-0.9522,-0.9511,-0.9507,-0.9495,-0.9489,-0.948,-0.9466,-0.9463,-0.9457,-0.945,-0.9451,-0.9451,-0.945,-0.9451,-0.9462,-0.9447,-0.9447,-0.9447,-0.9447,0,-0.9613,-0.9609,-0.9587,-0.9583,-0.9578,-0.9562,-0.9558,-0.9548,-0.9535,-0.9529,-0.9515,-0.9509,-0.9491,-0.9483,-0.9472,-0.9464,-0.9462,-0.9455,-0.9453,-0.9457,-0.9457,-0.9453,-0.9452,-0.9447,-0.9447,-0.9447,-0.9447,0,-0.9632,-0.9617,-0.9609,-0.959,-0.9585,-0.9582,-0.9565,-0.9561,-0.9549,-0.9541,-0.9538,-0.952,-0.951,-0.9495,-0.948,-0.9472,-0.9466,-0.9462,-0.947,-0.9469,-0.947,-0.947,-0.9479,-0.9479,-0.9464,-0.9465,-0.9465,0,-0.964,-0.9637,-0.9617,-0.9611,-0.9603,-0.9594,-0.9587,-0.9571,-0.9564,-0.9547,-0.9544,-0.9532,-0.9522,-0.9505,-0.9491,-0.9479,-0.9474,-0.9478,-0.9472,-0.9476,-0.9473,-0.9474,-0.9473,-0.9479,-0.9479,-0.948,-0.948,0,-0.9656,-0.9648,-0.9639,-0.9626,-0.9618,-0.9607,-0.9595,-0.9591,-0.9572,-0.9565,-0.9554,-0.9545,-0.9529,-0.9517,-0.9503,-0.9493,-0.9483,-0.9481,-0.9481,-0.9485,-0.949,-0.9487,-0.9474,-0.9482,-0.9481,-0.9481,-0.9481,-0.9481,-0.967,-0.9666,-0.965,-0.964,-0.9629,-0.9618,-0.9612,-0.9599,-0.9589,-0.9575,-0.9565,-0.9554,-0.9539,-0.9519,-0.951,-0.95,-0.9496,-0.9496,-0.9495,-0.9496,-0.9497,-0.9491,-0.9497,-0.9497,-0.9497,-0.9497,-0.9497,0,-0.9685,-0.9674,-0.9664,-0.9648,-0.9639,-0.9629,-0.9615,-0.9608,-0.9598,-0.9585,-0.9575,-0.9561,-0.9548,-0.9532,-0.9519,-0.9514,-0.9509,-0.9511,-0.9511,-0.9509,-0.9501,-0.9503,-0.9515,-0.9515,-0.9515,-0.9515,-0.9515,-0.9515,-0.9691,-0.9683,-0.9673,-0.9659,-0.9648,-0.9637,-0.963,-0.9619,-0.9608,-0.9593,-0.9583,-0.9572,-0.9557,-0.9542,-0.953,-0.9525,-0.9521,-0.9525,-0.9519,-0.9512,-0.951,-0.9508,-0.951,-0.9524,-0.9524,-0.9527,-0.9527,-0.9527]}]]